Overview Statistics Trail Chart Weather Telemetry Raw packets
 

This is the latest recevied weather packets stored in our database for station/object WW5JC. If no packets are shown the sender has not sent any weather packets the latest 10 day(s).

<< 108 109 110 111 112 113 114 >>
Time Temp. Humidity Pressure Rain* Wind** Luminosity Snow
1787808480 27.22° C 73% 1016.7 hPa 0 mm - 0 W/m² -
1787808180 27.78° C 72% 1016.5 hPa 0 mm - 0 W/m² -
1787807878 27.78° C 72% 1016.6 hPa 0 mm - 0 W/m² -
1787807574 27.78° C 71% 1016.5 hPa 0 mm - 0 W/m² -
1787807269 27.78° C 70% 1016.4 hPa 0 mm - 0 W/m² -
1787806964 27.78° C 70% 1016.2 hPa 0 mm - 0 W/m² -
1787806662 27.78° C 69% 1016.1 hPa 0 mm - 0 W/m² -
1787806359 28.33° C 68% 1016 hPa 0 mm - 0 W/m² -
1787806057 28.33° C 68% 1015.9 hPa 0 mm - 0 W/m² -
1787805753 28.33° C 67% 1015.9 hPa 0 mm - 0 W/m² -
1787805448 28.89° C 66% 1015.8 hPa 0 mm - 0 W/m² -
1787805144 28.89° C 66% 1015.8 hPa 0 mm - 0 W/m² -
1787804843 28.89° C 65% 1015.6 hPa 0 mm - 0 W/m² -
1787804538 29.44° C 65% 1015.7 hPa 0 mm - 0 W/m² -
1787804237 28.89° C 66% 1015.4 hPa 0 mm - 0 W/m² -
1787803933 29.44° C 67% 1015.4 hPa 0 mm - 0 W/m² -
1787803626 30° C 66% 1015.4 hPa 0 mm - 0 W/m² -
1787803326 30° C 66% 1015.5 hPa 0 mm - 0 W/m² -
1787803020 30° C 66% 1015.4 hPa 0 mm - 0 W/m² -
1787802720 30° C 66% 1015.3 hPa 0 mm - 0 W/m² -
1787802414 30° C 66% 1015.4 hPa 0 mm - 0 W/m² -
1787802108 30° C 69% 1015.5 hPa 0 mm - 0 W/m² -
1787801804 30° C 68% 1015.4 hPa 0 mm - 0 W/m² -
1787801499 30.56° C 69% 1015.2 hPa 0 mm - 0 W/m² -
1787801193 30.56° C 69% 1015.2 hPa 0 mm - 0 W/m² -

* Rain latest hour (hover to see other rain measurements)
** Current wind speed in m/s (hover to see current wind gust speed)